Change the Weather History Date:

Friday, March 14, 2014

  Actual Average Record
Temperature  
Mean Temperature 53 °F -  
Max Temperature 64 °F 53 °F 84 °F (2012)
Min Temperature 37 °F 29 °F 12 °F (1993)
Degree Days  
Heating Degree Days 12    
Growing Degree Days 3 (Base 50)    
Moisture  
Dew Point 26 °F    
Average Humidity 34    
Maximum Humidity 65    
Minimum Humidity 23    
Precipitation  
Precipitation 0.00 in - - ()
Sea Level Pressure  
Sea Level Pressure 29.86 in    
Wind  
Wind Speed 9 mph (WSW)    
Max Wind Speed 26 mph    
Max Gust Speed 37 mph    
Visibility 10 miles    
Events Rain    
Averages and records for this station are not official NWS values.
T = Trace of Precipitation, MM = Missing Value Source: NWS Daily Summary

Daily Weather History Graph

Daily Weather History Graph

Search for Another Location

Airport or City:

Trip Planner

Search our weather history database for the weather conditions in past years. The results will help you decide how hot, cold, wet, or windy it might be!

Date:

Astronomy

Mar. 14, 2014 Rise Set
Actual Time 7:21 AM CDT 7:14 PM CDT
Civil Twilight 6:54 AM CDT 7:41 PM CDT
Nautical Twilight 6:24 AM CDT 8:12 PM CDT
Astronomical Twilight 5:53 AM CDT 8:43 PM CDT
Moon 5:38 PM CDT (3/14) 6:00 AM CDT (3/14)
Length of Visible Light 12h 46m
Length of Day
11h 53m
Waxing Gibbous, 96% of the Moon is Illuminated
Mar 14
Waxing Gibbous
Mar 16
Full
Mar 23
Last Quarter
Mar 30
New
Apr 7
First Quarter

Hourly Weather History & Observations

Time (CDT) Temp. Dew Point Humidity Pressure Visibility Wind Dir Wind Speed Gust Speed Precip Events Conditions
12:53 AM 51.1 °F 21.9 °F 32% 29.88 in 10.0 mi East 4.6 mph - N/A   Clear
1:53 AM 48.9 °F 23.0 °F 36% 29.87 in 10.0 mi SE 4.6 mph - N/A   Clear
2:53 AM 50.0 °F 23.0 °F 35% 29.85 in 10.0 mi South 9.2 mph - N/A   Clear
3:53 AM 51.1 °F 23.0 °F 33% 29.84 in 10.0 mi Calm Calm - N/A   Clear
4:53 AM 50.0 °F 24.1 °F 36% 29.82 in 10.0 mi SE 5.8 mph - N/A   Clear
5:53 AM 50.0 °F 25.0 °F 38% 29.80 in 10.0 mi SSE 5.8 mph - N/A   Clear
6:53 AM 53.1 °F 26.1 °F 35% 29.79 in 10.0 mi SSW 11.5 mph 23.0 mph N/A   Clear
7:53 AM 54.0 °F 27.0 °F 35% 29.79 in 10.0 mi SW 12.7 mph 19.6 mph N/A   Clear
8:53 AM 55.9 °F 27.0 °F 33% 29.81 in 10.0 mi SW 12.7 mph 21.9 mph N/A   Clear
9:53 AM 57.0 °F 28.0 °F 33% 29.82 in 10.0 mi WSW 11.5 mph 18.4 mph N/A   Clear
10:53 AM 60.1 °F 26.1 °F 27% 29.81 in 10.0 mi WSW 26.5 mph 36.8 mph 0.00 in Rain Light Rain
11:53 AM 61.0 °F 27.0 °F 27% 29.82 in 10.0 mi West 15.0 mph 21.9 mph 0.00 in   Clear
12:53 PM 63.0 °F 27.0 °F 26% 29.83 in 10.0 mi West 21.9 mph 28.8 mph N/A   Clear
1:53 PM 63.0 °F 28.0 °F 27% 29.84 in 10.0 mi WNW 18.4 mph - N/A   Clear
2:53 PM 63.0 °F 28.9 °F 28% 29.84 in 10.0 mi West 16.1 mph 24.2 mph N/A   Clear
3:53 PM 64.0 °F 27.0 °F 25% 29.85 in 10.0 mi WNW 17.3 mph - N/A   Clear
4:53 PM 64.0 °F 25.0 °F 23% 29.86 in 10.0 mi WNW 13.8 mph 23.0 mph N/A   Clear
5:53 PM 64.0 °F 26.1 °F 24% 29.88 in 10.0 mi WNW 15.0 mph - N/A   Clear
6:53 PM 61.0 °F 24.1 °F 24% 29.90 in 10.0 mi WNW 8.1 mph - N/A   Clear
7:53 PM 57.0 °F 25.0 °F 29% 29.92 in 10.0 mi NW 4.6 mph - N/A   Clear
8:53 PM 52.0 °F 26.1 °F 37% 29.94 in 10.0 mi NW 4.6 mph - N/A   Clear
9:53 PM 43.0 °F 27.0 °F 53% 29.97 in 10.0 mi Calm Calm - N/A   Clear
10:53 PM 42.1 °F 28.0 °F 58% 29.99 in 10.0 mi Calm Calm - N/A   Clear
11:53 PM 37.9 °F 27.0 °F 65% 30.00 in 10.0 mi Calm Calm - N/A   Clear